Probability
0 0 0 0 0 0 0 0 0 0 0 0 0 0 0 0 0 0 0 0 0 0 0 0 0 0 0 0 0 0 0 0 0 0 0 0 0 0 0 0 0 0 0
0 0 0 0 0 0 0 0 0 0 0 0 0 0 0 0 0 0 0 0 0 0 0 0 0 0 0 0 0 0 0 0 0 0 0 0 0 0 0 0 0 0 0
0 0 0 0 0 0 0 0 0 0 0 0 0 0 0 0 0 0 0 0 0 0 0 0 0 0 0 0 0 0 0 0 0 0 0 0 0 0 0 0 0 0 0
0 0 0 0 0 0 0 0 0 0 0 0 0 0 0 0 0 0 0 0 0 0 0 0 0 0 0 0 0 0 0 0 0 0 0 0 0 0 0 0 0 0 0
0 0 0 0 0 0 0 0 0 0 0 0 0 0 0 0 0 0 0 0 0 0 0 0 0 0 0 0 0 0 0 0 0 0 0 0 0 0 0 0 0 0 0
0 0 0 0 0 0 0 0 0 0 0 0 0 0 0 0 0 0 0 0 0 0 0 0 0 0 0 0 0 0 0 0 0 0 0 0 0 0 0 0 0 0 0
0 0 0 0 0 0 0 0 0 0 0 0 0 0 0 0 0 0 0 0 0 0 0 0 0 0 0 0 0 0 0 0 0 0 0 0 0 0 0 0 0 0 0
0 0 0 0 0 0 0 0 0 0 0 0 0 0 0 0 0 0 0 0 0 0 0 0 0 0 0 0 0 0 0 0 0 0 0 0 0 0 0 0 0 0 0
0 0 0 0 0 0 0 0 0 0 0 0 0 0 0 0 0 0 0 0 0 0 0 0 0 0 0 0 0 0 0 0 0 0 0 0 0 0 0 0 0 0 0
0 0 0 0 0 0 0 0 0 0 0 0 0 0 0 0 0 0 0 0 0 0 0 0 0 0 0 0 0 0 0 0 0 0 0 0 0 0 0 0 0 0 0
0 0 0 0 0 0 0 0 0 0 0 0 0 0 0 0 0 0 0 0 0 0 0 0 0 0 0 0 0 0 0 0 0 0 0 0 0 0 0 0 0 0 0
0 0 0 0 0 0 0 0 0 0 0 0 0 0 0 0 0 0 0 0 0 0 0 0 0 0 0 0 0 0 0 0 0 0 0 0 0 0 0 0 0 0 0
0 0 0 0 0 0 0 0 0 0 0 0 0 0 0 0 0 0 0 0 0 0 0 0 0 0 0 0 0 0 0 0 0 0 0 0 0 0 0 0 0 0 0
0 0 0 0 0 0 0 0 0 0 0 0 0 0 0 0 0 0 0 0 0 0 0 0 0 0 0 0 0 0 0 0 0 0 0 0 0 0 0 0 0 0 0
0 0 0 0 0 0 0 0 0 0 0 0 0 0 0 0 0 0 0 0 0 0 0 0 0 0 0 0 0 0 0 0 0 0 0 0 0 0 0 0 0 0 0
0 0 0 0 0 0 0 0 0 0 0 0 0 0 0 0 0 0 0 0 0 0 0 0 0 0 0 0 0 0 0 0 0 0 0 0 0 0 0 0 0 0 0
0 0 0 0 0 0 0 0 0 0 0 0 0 0 0 0 0 0 0 0 0 0 0 0 0 0 0 0 0 0 0 0 0 0 0 0 0 0 0 0 0 0 0
0 0 0 0 0 0 0 0 0 0 0 0 0 0 0 0 0 0 0 0 0 0 0 0 0 0 0 0 0 0 0 0 0 0 0 0 0 0 0 0 0 0 0
0 0 0 0 0 0 0 0 0 0 0 0 0 0 0 0 0 0 0 0 0 0 0 0 0 0 0 0 0 0 0 0 0 0 0 0 0 0 0 0 0 0 0
0 0 0 0 0 0 0 0 0 0 0 0 0 0 0 0 0 0 0 0 0 0 0 0 0 0 0 0 0 0 0 0 0 0 0 0 0 0 0 0 0 0 0
0 0 0 0 0 0 0 0 0 0 0 0 0 0 0 0 0 0 0 0 0 0 0 0 0 0 0 0 0 0 0 0 0 0 0 0 0 0 0 0 0 0 0
0 0 0 0 0 0 0 0 0 0 0 0 0 0 0 0 0 0 0 0 0 0 0 0 0 0 0 0 0 0 0 0 0 0 0 0 0 0 0 0 0 0 0
0 0 0 0 0 0 0 0 0 0 0 0 0 0 0 0 0 0 0 0 0 0 0 0 0 0 0 0 0 0 0 0 0 0 0 0 0 0 0 0 0 0 0
0 0 0 0 0 0 0 0 0 0 0 0 0 0 0 0 0 0 0 0 0 0 0 0 0 0 0 0 0 0 0 0 0 0 0 0 0 0 0 0 0 0 0
0 0 0 0 0 0 0 0 0 0 0 0 0 0 0 0 0 0 0 0 0 0 0 0 0 0 0 0 0 0 0 0 0 0 0 0 0 0 0 0 0 0 0
0 0 0 0 0 0 0 0 0 0 0 0 0 0 0 0 0 0 0 0 0 0 0 0 0 0 0 0 0 0 0 0 0 0 0 0 0 0 0 0 0 0 0
Height
5626 5624 5624 5625 5627 5631 5635 5640 5645 5651 5657 5662 5667 5672 5675 5678 5681 5683 5684 5685 5685 5685 5685 5683 5682 5680 5677 5675 5672 5669 5665 5662 5658 5654 5648 5643 5637 5630 5624 5618 5612 5606 5599
5604 5602 5602 5603 5606 5610 5616 5621 5627 5634 5640 5647 5653 5658 5662 5666 5669 5671 5673 5674 5674 5674 5673 5672 5670 5668 5665 5662 5659 5655 5651 5647 5643 5638 5633 5626 5620 5613 5607 5601 5594 5586 5578
5581 5579 5580 5583 5587 5592 5598 5604 5611 5618 5625 5632 5639 5644 5649 5653 5657 5660 5662 5663 5663 5663 5662 5661 5659 5656 5653 5650 5646 5642 5637 5632 5627 5622 5616 5610 5603 5595 5590 5583 5575 5566 5557
5563 5562 5564 5567 5572 5577 5583 5590 5597 5605 5612 5619 5626 5632 5637 5642 5646 5649 5651 5652 5653 5653 5652 5650 5648 5644 5641 5637 5632 5627 5622 5616 5610 5605 5599 5592 5585 5577 5570 5564 5557 5546 5536
5553 5552 5554 5557 5561 5566 5572 5579 5586 5593 5601 5608 5615 5621 5627 5632 5636 5639 5641 5642 5642 5642 5641 5639 5636 5632 5628 5623 5618 5613 5607 5600 5594 5588 5582 5575 5567 5558 5551 5543 5536 5527 5516
5550 5548 5549 5551 5554 5559 5565 5571 5578 5585 5592 5599 5606 5612 5618 5623 5626 5629 5631 5632 5632 5631 5629 5627 5623 5619 5615 5610 5604 5598 5591 5584 5577 5571 5564 5556 5548 5539 5531 5522 5514 5506 5497
5551 5548 5548 5549 5552 5556 5560 5566 5572 5579 5586 5593 5599 5605 5610 5615 5618 5620 5621 5622 5621 5620 5618 5615 5611 5607 5602 5596 5589 5582 5575 5566 5560 5553 5546 5537 5529 5520 5512 5503 5492 5483 5473
5554 5551 5549 5550 5551 5554 5559 5564 5569 5575 5582 5588 5594 5599 5604 5607 5610 5612 5613 5612 5611 5609 5607 5603 5598 5593 5587 5582 5575 5568 5559 5550 5542 5534 5526 5517 5508 5499 5490 5482 5473 5465 5456
5558 5555 5554 5553 5554 5556 5560 5564 5569 5575 5580 5585 5590 5595 5599 5602 5604 5604 5604 5603 5601 5598 5595 5590 5586 5580 5574 5567 5561 5553 5544 5534 5524 5514 5505 5496 5487 5477 5469 5462 5455 5447 5441
5565 5561 5560 5559 5560 5562 5565 5568 5572 5577 5581 5585 5589 5592 5594 5596 5596 5596 5595 5593 5590 5587 5583 5578 5573 5566 5559 5552 5544 5536 5527 5517 5506 5495 5485 5475 5466 5458 5451 5445 5438 5431 5424
5572 5569 5568 5567 5567 5568 5570 5573 5575 5578 5581 5583 5586 5588 5589 5590 5589 5588 5586 5584 5580 5576 5571 5565 5559 5552 5544 5535 5527 5518 5508 5498 5487 5476 5466 5457 5449 5442 5436 5429 5423 5417 5410
5578 5575 5574 5573 5573 5574 5575 5576 5577 5579 5581 5582 5584 5584 5584 5583 5582 5580 5577 5574 5570 5565 5559 5553 5545 5537 5527 5518 5508 5498 5487 5477 5468 5458 5450 5442 5436 5430 5424 5418 5411 5404 5397
5582 5580 5578 5578 5577 5577 5577 5578 5578 5579 5580 5580 5580 5579 5578 5576 5574 5572 5568 5564 5559 5553 5546 5538 5529 5520 5509 5498 5487 5477 5467 5458 5449 5442 5436 5431 5425 5420 5415 5409 5402 5395 5387
5585 5583 5581 5580 5579 5579 5579 5578 5578 5578 5577 5576 5575 5574 5572 5569 5566 5563 5558 5553 5547 5540 5531 5522 5512 5501 5489 5478 5467 5457 5448 5441 5435 5430 5426 5421 5416 5411 5406 5400 5394 5387 5380
5586 5584 5583 5581 5580 5579 5578 5577 5576 5575 5573 5572 5570 5568 5565 5562 5558 5553 5547 5541 5534 5525 5516 5505 5494 5482 5471 5460 5450 5441 5435 5430 5426 5421 5417 5413 5408 5403 5397 5392 5386 5379 5373
5586 5584 5582 5580 5579 5578 5576 5575 5573 5571 5569 5567 5564 5561 5557 5553 5548 5542 5536 5528 5520 5510 5500 5488 5477 5466 5456 5446 5438 5431 5426 5422 5418 5414 5410 5405 5401 5396 5390 5384 5378 5372 5365
5585 5583 5581 5579 5577 5575 5573 5571 5569 5566 5563 5560 5557 5553 5549 5544 5538 5531 5524 5515 5506 5496 5485 5474 5463 5453 5444 5436 5429 5423 5419 5415 5411 5407 5403 5399 5394 5389 5383 5378 5371 5365 5358
5583 5581 5579 5577 5574 5572 5569 5567 5564 5561 5558 5554 5550 5545 5540 5534 5527 5520 5512 5503 5493 5482 5472 5461 5452 5443 5435 5428 5422 5417 5413 5410 5406 5402 5397 5393 5388 5383 5377 5371 5365 5358 5352
5580 5578 5575 5573 5570 5568 5565 5562 5558 5555 5551 5546 5542 5536 5531 5524 5517 5509 5500 5491 5480 5470 5460 5450 5442 5434 5428 5422 5417 5413 5409 5405 5401 5396 5392 5387 5382 5376 5370 5364 5358 5351 5344
5576 5574 5571 5569 5566 5563 5559 5556 5552 5547 5543 5538 5533 5528 5521 5514 5507 5498 5489 5479 5469 5459 5450 5442 5435 5428 5423 5418 5414 5409 5405 5401 5396 5391 5386 5381 5375 5370 5364 5358 5351 5345 5338
5572 5569 5567 5564 5560 5557 5553 5549 5545 5540 5536 5530 5525 5519 5512 5505 5496 5488 5478 5468 5459 5450 5443 5436 5429 5424 5419 5414 5410 5405 5401 5396 5391 5386 5380 5375 5369 5363 5357 5351 5345 5338 5332
5567 5564 5561 5558 5554 5550 5546 5542 5538 5533 5528 5522 5516 5510 5503 5495 5487 5478 5468 5459 5450 5443 5437 5431 5425 5420 5415 5410 5406 5401 5396 5391 5385 5380 5374 5369 5363 5358 5352 5345 5339 5333 5327
5561 5558 5555 5552 5548 5544 5540 5535 5530 5525 5520 5514 5508 5501 5494 5486 5477 5468 5459 5451 5444 5437 5431 5426 5421 5416 5411 5406 5401 5396 5391 5385 5380 5374 5369 5363 5357 5352 5346 5340 5334 5327 5321
5555 5552 5549 5545 5541 5537 5533 5528 5523 5517 5512 5506 5499 5493 5485 5477 5468 5459 5451 5444 5437 5432 5426 5421 5416 5411 5406 5401 5396 5390 5385 5380 5374 5368 5363 5357 5352 5346 5340 5334 5328 5322 5315
5549 5546 5542 5539 5534 5530 5525 5520 5515 5509 5504 5498 5491 5484 5477 5468 5460 5451 5444 5437 5431 5426 5421 5416 5411 5406 5400 5395 5390 5384 5379 5373 5368 5362 5357 5351 5346 5340 5334 5329 5323 5316 5310
5542 5539 5535 5531 5527 5522 5517 5512 5507 5501 5496 5489 5483 5476 5468 5460 5451 5443 5436 5430 5424 5419 5414 5409 5404 5399 5394 5388 5383 5378 5372 5367 5361 5356 5350 5345 5340 5334 5329 5323 5317 5311 5305
Wind_Speed
63 65 67 68 70 71 71 71 71 70 68 65 63 60 58 57 55 54 52 51 50 49 49 49 48 51 51 51 52 53 54 55 56 58 60 63 65 66 68 69 70 71 72
61 62 63 63 65 67 68 68 69 69 68 66 63 61 60 58 56 55 53 51 50 50 49 49 50 52 52 54 55 56 57 58 59 61 63 66 67 69 70 70 71 73 74
53 54 55 57 58 60 62 63 64 64 64 64 63 61 59 58 56 54 52 51 50 49 49 49 51 52 54 56 57 58 60 62 64 65 66 68 69 70 71 72 73 75 77
40 41 42 45 48 51 54 56 58 58 59 59 59 58 57 56 54 52 51 50 48 48 48 49 52 54 57 58 60 62 63 65 66 67 67 68 69 71 73 73 74 76 78
27 28 31 34 39 42 45 47 49 51 51 51 52 52 52 51 50 49 48 47 46 46 47 49 53 56 58 61 63 64 66 66 67 68 68 69 70 72 74 75 76 77 78
18 18 20 23 27 30 33 35 37 39 41 42 44 45 45 45 45 44 43 43 44 45 47 50 53 57 59 62 64 65 65 66 67 68 69 70 72 74 75 76 77 77 76
13 11 12 15 19 20 22 24 27 29 31 33 35 37 39 40 40 40 40 42 43 45 48 51 55 58 60 61 63 64 65 67 69 69 71 73 74 76 77 77 76 75 73
10 6 5 7 10 14 17 18 20 22 24 26 29 33 34 36 37 38 39 42 45 47 50 52 54 57 59 61 63 64 65 68 70 72 74 75 77 77 76 74 71 68 64
11 6 3 3 7 9 12 15 17 19 21 23 25 27 29 31 34 36 38 41 43 45 47 50 53 56 59 60 62 64 66 69 72 74 75 76 75 74 71 67 63 59 56
15 12 9 9 7 7 8 10 13 15 16 18 21 24 27 29 32 35 36 39 41 43 47 50 53 55 58 60 63 65 68 71 73 74 74 73 70 66 62 58 55 53 51
15 13 11 8 6 6 6 6 7 10 12 15 19 22 23 25 28 31 34 37 40 44 47 50 53 56 60 63 66 69 71 71 72 71 70 66 61 56 53 51 50 48 47
14 12 9 7 5 4 2 1 2 5 8 11 14 17 20 23 25 29 33 36 40 43 47 51 55 59 63 66 69 71 71 70 68 65 59 54 50 47 46 46 45 45 45
12 13 12 10 8 6 5 4 4 6 9 12 15 18 22 25 28 31 34 37 41 45 50 54 58 62 66 68 69 68 66 63 58 51 46 43 41 40 41 41 41 42 43
11 11 10 10 9 8 8 8 9 11 14 16 19 22 24 27 29 32 36 40 45 49 54 59 62 65 66 66 64 61 56 49 43 39 36 36 36 37 37 37 38 39 39
11 11 11 11 11 11 11 12 14 15 17 19 21 23 26 29 32 36 40 44 48 53 58 62 64 63 62 59 54 48 42 37 34 33 32 32 33 33 34 36 37 37 37
12 12 13 13 13 14 15 16 17 18 20 21 23 26 29 32 36 39 43 48 53 57 60 61 60 58 54 49 43 38 34 31 29 29 29 29 30 31 33 34 35 36 36
14 14 15 15 16 16 18 19 20 21 23 24 26 29 32 35 39 43 47 51 55 58 59 58 55 51 46 41 36 33 29 28 27 27 27 28 29 30 32 33 34 35 35
15 16 17 17 18 19 20 21 22 24 25 27 29 32 35 39 42 46 50 54 57 58 57 53 48 44 40 35 31 28 26 26 26 26 27 28 29 31 32 33 34 35 35
17 18 19 19 20 21 22 24 25 26 28 30 33 36 39 41 45 48 52 56 57 55 51 46 41 37 33 29 27 25 25 25 26 27 29 29 30 31 32 33 34 35 35
19 20 21 22 22 24 25 26 28 29 31 33 36 38 41 44 47 51 54 56 54 50 44 39 35 31 28 25 25 25 25 27 28 29 30 30 31 32 32 33 34 34 35
21 22 23 23 25 26 27 29 31 32 34 36 38 40 43 45 49 52 55 53 48 42 37 33 30 27 25 24 25 26 27 28 29 30 31 31 31 32 33 33 34 35 35
22 23 24 26 27 28 30 31 33 34 36 37 40 42 44 47 50 53 52 47 41 36 32 29 27 25 25 25 26 28 29 30 30 31 32 32 32 33 33 34 34 35 35
24 25 26 28 29 31 32 34 35 36 37 38 41 43 46 48 51 52 47 42 37 32 29 27 26 26 26 27 28 29 30 31 32 32 32 32 32 32 33 33 34 35 35
25 26 28 29 31 32 34 35 36 37 38 40 42 44 47 49 51 49 44 38 33 30 28 27 27 27 28 29 30 31 32 32 33 33 33 33 32 32 32 33 34 34 34
26 27 29 31 32 34 35 36 37 37 39 41 43 45 47 49 50 46 41 35 32 29 28 28 28 29 30 31 32 33 33 34 34 33 33 33 32 32 32 32 32 32 32
27 29 30 32 33 34 35 36 37 38 40 42 44 46 48 49 49 44 39 34 32 31 30 31 31 31 32 33 34 34 34 35 35 34 33 32 31 31 30 30 31 31 31
Wind_Direction
267 263 260 257 255 253 252 251 250 250 250 250 250 250 251 253 256 258 262 265 268 271 274 277 277 279 280 281 283 286 287 288 289 291 292 293 294 295 295 296 296 296 296
270 265 260 256 253 251 249 249 248 248 248 248 249 249 251 253 255 258 260 263 267 270 273 275 276 277 279 281 284 287 288 289 291 292 294 295 295 296 296 297 297 298 297
272 266 260 254 251 249 248 247 246 246 247 247 248 248 250 251 254 256 259 262 266 269 272 274 275 275 280 282 285 287 288 290 292 293 294 295 296 296 297 298 299 299 298
275 267 259 252 248 247 246 245 245 244 245 246 246 247 248 251 253 256 259 262 266 269 272 273 275 277 279 281 284 286 288 291 293 294 295 296 296 297 298 299 300 300 299
282 269 259 252 247 245 245 244 243 242 243 244 245 246 247 249 252 255 258 262 266 268 271 271 274 277 280 283 285 287 290 292 293 294 295 297 298 299 300 300 301 301 300
297 278 262 252 247 243 242 241 241 240 241 242 243 245 246 248 250 253 258 262 264 267 269 272 276 280 281 284 287 290 292 293 294 295 297 298 299 299 301 301 301 301 300
314 287 266 252 241 235 231 230 231 233 235 239 240 241 244 246 249 253 257 260 264 268 272 275 278 281 283 287 290 293 294 295 296 297 298 299 300 300 301 302 302 302 302
349 327 277 243 224 214 214 218 222 223 228 232 234 237 241 244 248 253 257 262 266 270 275 278 281 285 287 290 292 294 296 296 297 298 299 300 301 302 302 302 302 303 303
23 31 62 159 186 189 193 197 203 209 218 224 231 236 241 246 252 257 262 267 271 275 279 283 286 288 291 293 295 296 297 298 298 299 300 301 302 303 303 303 304 304 304
40 51 68 83 104 136 167 186 198 210 218 225 234 242 248 253 259 265 270 274 279 284 287 290 292 294 295 296 297 298 298 299 300 300 302 303 303 303 304 305 305 306 306
37 50 63 76 94 126 152 177 200 217 231 240 246 252 260 266 271 274 280 284 288 291 293 295 296 298 299 299 300 300 300 300 301 301 303 303 303 304 305 306 308 308 309
34 41 50 55 61 85 119 275 265 259 260 265 269 273 278 284 287 289 291 293 295 296 298 299 301 301 302 302 301 301 301 301 302 302 302 302 303 304 306 309 310 311 312
33 39 45 46 45 41 24 356 327 307 298 295 295 295 295 296 296 297 298 299 301 302 303 304 305 305 305 304 304 303 303 303 303 303 302 303 303 305 308 311 313 315 316
26 28 28 26 20 11 357 340 325 315 311 307 304 302 301 301 302 303 305 306 307 308 309 309 309 309 308 307 307 306 306 305 305 305 304 305 306 308 310 312 315 317 319
8 6 4 359 353 346 339 331 323 317 313 309 307 306 306 306 307 309 310 311 313 314 314 314 313 312 312 311 310 310 309 309 308 307 307 308 309 311 313 315 317 319 320
348 347 346 343 339 334 329 324 320 317 314 312 311 311 311 311 312 314 315 317 318 318 318 317 317 316 315 315 315 314 313 312 311 311 312 313 314 315 317 318 320 321 321
336 336 334 332 329 325 323 320 318 317 315 314 314 314 315 316 317 318 320 321 322 322 321 320 319 318 319 319 318 317 316 316 316 316 317 317 317 318 319 320 322 323 323
326 326 326 324 322 321 320 319 318 317 317 317 317 318 318 319 320 322 323 324 324 323 322 321 320 320 321 321 321 321 320 320 319 319 319 319 319 320 320 321 323 324 325
320 321 321 320 319 319 319 319 319 319 319 319 320 321 321 322 323 324 325 325 325 324 322 321 322 323 324 325 326 325 324 323 322 321 321 321 321 321 322 323 324 326 328
316 317 317 317 317 318 319 320 320 320 321 321 321 322 323 324 325 327 327 326 325 323 322 323 324 326 327 328 328 327 326 325 323 322 322 322 322 323 323 324 326 328 329
312 313 314 315 317 318 319 320 320 320 321 321 322 323 324 326 327 328 328 326 324 323 322 323 325 328 329 329 329 328 327 326 325 324 323 323 323 324 325 326 328 329 329
309 311 313 315 316 317 318 319 319 320 321 322 323 324 326 327 328 329 328 326 323 322 321 323 326 327 329 329 329 328 328 327 326 326 325 324 324 324 325 326 327 327 327
308 310 312 314 315 316 317 318 319 320 321 322 324 326 327 328 329 330 328 325 321 319 319 321 322 323 325 326 327 327 327 326 326 325 325 324 323 324 324 325 326 327 328
306 309 311 313 314 316 317 319 320 321 322 323 325 326 328 329 330 330 327 322 318 316 316 317 319 320 321 323 324 325 326 326 325 324 324 324 323 323 323 325 326 327 328
305 308 310 312 314 316 318 319 320 321 322 324 326 327 329 330 330 329 325 319 314 312 312 313 314 315 317 319 321 323 324 324 324 323 323 323 323 323 324 325 327 328 329
305 307 310 312 314 316 318 319 320 321 323 325 327 328 329 330 330 327 322 317 312 310 309 310 310 312 314 316 318 320 321 322 322 323 323 323 323 324 324 326 328 330 330